Notices

What's New in latest Release from April 7th, 2021:

- Updated Glossary, including Speed of Maximum Gust, and Total Hourly Precipitation

- Updated national and regional climate services offices contacts and prices information

- Addition of station inventory lists for 1981-2010, 1971-2000, and 1961-1990 Normals.

If you haven't already, please take our survey and provide feedback about our website: https://eccc.sondage-survey.ca/f/LanguageSelection.aspx?s=442ca660-fcf1-47c0-95a9-59707d6fd709

Hourly Data Report for October 20, 2003

TORONTO CITY
ONTARIO

43°40'00.000" N
79°24'00.000" W
112.50 m
6158355
71508
XTO

Download Data

Hourly Data (October 2003)
Hourly Data Report for October 20, 2003
TIME
LST
Temp Definition
°C
Dew Point Definition
°C
Rel Hum Definition
%
Precip. Amount Definition
mm

Wind Dir Definition
10's deg

Wind Spd Definition
km/h
Visibility Definition
km
Stn Press Definition
kPa
Hmdx Definition


Wind Chill Definition


Weather Definition


00:00 5.6 2.6 81   LegendMM LegendMM LegendMM 100.64     LegendNANA
01:00
02:00 5.3 2.7 83   LegendMM LegendMM LegendMM 100.64     LegendNANA
03:00 5.6 2.7 82   LegendMM LegendMM LegendMM 100.60     LegendNANA
04:00 6.5 3.8 83   LegendMM LegendMM LegendMM 100.61     LegendNANA
05:00 6.7 4.2 84   LegendMM LegendMM LegendMM 100.60     LegendNANA
06:00 5.8 3.8 87   LegendMM LegendMM LegendMM 100.60     LegendNANA
07:00 5.2 4.0 92   LegendMM LegendMM LegendMM 100.55     LegendNANA
08:00 7.1 4.2 82   LegendMM LegendMM LegendMM 100.56     LegendNANA
09:00
10:00 10.0 4.9 71   LegendMM LegendMM LegendMM 100.44     LegendNANA
11:00 11.7 6.4 70   LegendMM LegendMM LegendMM 100.35     LegendNANA
12:00
13:00 13.9 8.0 68   LegendMM LegendMM LegendMM 100.01     LegendNANA
14:00 14.3 7.4 63   LegendMM LegendMM LegendMM 99.84     LegendNANA
15:00 14.3 6.9 61   LegendMM LegendMM LegendMM 99.68     LegendNANA
16:00
17:00 14.1 6.1 59   LegendMM LegendMM LegendMM 99.30     LegendNANA
18:00 14.2 6.9 61   LegendMM LegendMM LegendMM 99.15     LegendNANA
19:00 14.6 7.7 63   LegendMM LegendMM LegendMM 99.01     LegendNANA
20:00 13.5 8.4 71   LegendMM LegendMM LegendMM 98.89     LegendNANA
21:00 14.7 9.4 71   LegendMM LegendMM LegendMM 98.78     LegendNANA
22:00 14.9 10.2 73   LegendMM LegendMM LegendMM 98.64     LegendNANA
23:00 14.5 10.5 77   LegendMM LegendMM LegendMM 98.47     LegendNANA

Notes on Data Quality.

Legend

  • E = Estimated
  • M = Missing
  • NA = Not Available*
  • [empty] = Indicates an unobserved value
Date modified: